Location: Arbon
(43.0005°N, 0.7472°E)
Time: 03:46:32
(UTC+00:00)

Cosmos 2219 Rocket - Visible Passes

Search period start: 25 November 2020 00:00
Search period end: 05 December 2020 00:00
Orbit: 828 x 846 km, 71.0° (Epoch: 24 November)

Date Brightness Start Highest point End Pass type
(mag) Time Alt. Az. Time Alt. Az. Time Alt. Az.
25 Nov 3.8 17:17:18 10° WSW 17:22:18 31° NW 17:27:18 10° N visible
26 Nov 3.7 17:00:47 10° WSW 17:05:52 33° NW 17:10:57 10° N visible
03 Dec 4.7 16:54:52 10° NW 16:56:09 11° NW 16:57:25 10° NNW visible
